Flag for U.S.A. Weather past 2 weeks in Vallejo, California, U.S.A.

Now
57 °F

Sunny.


Feels Like: 56 °F
Forecast: 53 / 69 °F
Wind: 6 mph from East

Location: Napa County Airport

Current Time: Oct 24, 2014 at 9:30:57 AM

Latest Report: Oct 24, 2014 at 8:54 AM


Visibility: 10 mi

Pressure: 29.95 "Hg

Humidity: 87%

Dew point: 53 °F

Location of VallejoLocation

Historic Weather in Vallejo — Graph

°F

Vallejo temperature yesterday

Maximum temperature yesterday: 71 °F (at 1:54 PM)
Minimum temperature yesterday: 53 °F (at 4:54 AM)
Average temperature yesterday: 61 °F

Past Weeks' High & Low Weather Summary

 TemperatureHumidityPressure
High95 °F (Oct 12, 2:54 PM)100% (Oct 9, 7:54 AM)30.09 "Hg (Oct 9, 7:54 AM)
Low42 °F (Oct 22, 7:54 AM)4% (Oct 12, 3:54 PM)29.79 "Hg (Oct 14, 5:54 PM)
Average60 °F78%29.94 "Hg
* Reported Oct 9 7:54 AM — Oct 24 7:54 AM, Vallejo, Weather by CustomWeather, © 2014

Note: Actual official high and low records may vary slightly from our data, if they occured in-between our weather recording intervals... More about our weather records

Advertising

Vallejo weather history for previous 24 hours

 ConditionsComfort  
Time TempWeatherWind HumidityBarometerVisibility
7:54 AM
Oct 24
49 °FClear.5 mph97%29.94 "Hg10 mi
6:54 AM46 °FClear.3 mph100%29.94 "Hg10 mi
5:54 AM48 °FClear.3 mph100%29.93 "Hg9 mi
4:54 AM50 °FClear.3 mph100%29.93 "Hg10 mi
3:54 AM49 °FClear.3 mph100%29.93 "Hg10 mi
2:54 AM48 °FClear.No wind100%29.94 "Hg10 mi
1:54 AM52 °FClear.3 mph100%29.95 "Hg10 mi
12:54 AM55 °FClear.No wind90%29.96 "Hg10 mi
11:54 PM
Oct 23
56 °FClear.5 mph90%29.96 "Hg10 mi
10:54 PM58 °FClear.6 mph87%29.96 "Hg10 mi
9:54 PM56 °FClear.5 mph93%29.95 "Hg10 mi
8:54 PM60 °FClear.5 mph90%29.94 "Hg10 mi
7:54 PM59 °FClear.5 mph90%29.94 "Hg10 mi
6:54 PM64 °FSunny.3 mph78%29.94 "Hg10 mi
5:54 PM69 °FSunny.3 mph70%29.93 "Hg10 mi
4:54 PM71 °FSunny.7 mph66%29.95 "Hg10 mi
3:54 PM71 °FSunny.3 mph63%29.96 "Hg10 mi
2:54 PM71 °FSunny.6 mph63%29.98 "Hg10 mi
1:54 PM71 °FSunny.7 mph66%30.00 "Hg10 mi
12:54 PM69 °FSunny.7 mph70%30.02 "Hg10 mi
11:54 AM68 °FSunny.6 mph73%30.04 "Hg10 mi
10:54 AM65 °FSunny.6 mph81%30.05 "Hg10 mi
9:54 AM62 °FSunny.No wind86%30.04 "Hg10 mi
Weather by CustomWeather, © 2014

See weather overviewHow to use our weather pages